Starlink 3154

operational
NORAD ID: 49417 Int'l Des: 2021-104 Owner: SPXS Country: US Constellation: starlink
LEOCIRCULAR

About Starlink 3154

Description loading...

Live Position

Loading 3D Globe...

Upcoming Passes

Altitude History

Altitude vs Time

uPlot chart will show altitude changes over time

Two-Line Element Set

1 49417U 21104K 25257.47005331 .00000724 00000-0 63552-4 0 9995
2 49417 53.2169 289.8578 0001278 92.5346 267.5792 15.08841581212168
Epoch: Sep 14, 2025 • Age: 22 hours

Current Status

Altitude 549.0 km
Velocity 7.59 km/s
Sub-Earth Point -29.13°S, 2.11°E
Launch Date Nov 13, 2021
Age 3.8 years
Type internet

Technical Details

Classification Payload
Mass 290.00 kg
Dry Mass 270.00 kg
Total Mass 290.00 kg
Length 0.20 m
Diameter 2.80 m
Span 9.00 m
Shape Box + pan
Manufacturer SPXS
Bus Type Starlink
Phase Status In Orbit
Owner/State SPXS/US

Large Constellations

Loading constellations...